Zurück zum Katalog

SL-3 R/B

AktivPO
NORAD 8846·ROCKET BODY·🇷🇺 Russia

Gestartet May 15, 1976 von Plesetsk Cosmodrome

Loading…

Nächste Überflüge (nächste 24 Stunden)

TLE

AktuellSource: Space-Track

Epoche: Sep 14, 2026, 06:10 UTC

1 08846U 76043B   26257.25750768 -.00000020  00000-0 -18445-4 0  9998
2 08846  81.2225 265.7333 0040422 206.9391 152.9681 14.09036390586094

Verfolge SL-3 R/B in Echtzeit mit AllMySat

Download on the App Store